Location: Paddlesworth
(51.1000°N, 1.1333°E)
Time: 19:46:53
(UTC+00:00)

Meteor 1-18 Rocket - Pass Details

Date: 11 May 2021
Orbit: 837 x 909 km, 81.2° (Epoch: 20 June)

Event Time Altitude Azimuth Distance (km) Brightness Sun altitude
Exits shadow 23:16:07 36° 198° (SSW) 1,330 4.8 -20.3°
Maximum altitude 23:18:33 83° 282° (WNW) 864 4.2 -20.4°
Drops below altitude 10° 23:24:10 10° 11° (NNE) 2,473 7.7 -20.5°
Sets 23:26:35 0° 13° (NNE) 3,407 8.6 -20.5°
